TimeEDT,TemperatureF,Dew PointF,Humidity,Sea Level PressureIn,VisibilityMPH,Wind Direction,Wind SpeedMPH,Gust SpeedMPH,PrecipitationIn,Events,Conditions,WindDirDegrees,DateUTC
12:53 AM,66.9,64.9,93,29.65,10.0,South,3.5,-,0.05,Rain,Light Rain,180,2013-09-13 04:53:00
1:53 AM,66.0,64.9,96,29.63,10.0,South,4.6,-,0.01,,Partly Cloudy,190,2013-09-13 05:53:00
2:31 AM,66.2,64.4,94,29.65,9.0,SW,5.8,-,N/A,,Mostly Cloudy,230,2013-09-13 06:31:00
2:46 AM,66.2,64.4,94,29.64,10.0,Calm,Calm,-,N/A,,Overcast,0,2013-09-13 06:46:00
2:53 AM,66.0,64.9,96,29.62,10.0,Calm,Calm,-,N/A,,Mostly Cloudy,0,2013-09-13 06:53:00
3:31 AM,66.2,64.4,94,29.63,10.0,Calm,Calm,-,N/A,,Overcast,0,2013-09-13 07:31:00
3:39 AM,66.2,64.4,94,29.63,10.0,Calm,Calm,-,N/A,,Overcast,0,2013-09-13 07:39:00
3:53 AM,66.9,64.9,93,29.60,10.0,Calm,Calm,-,N/A,,Overcast,0,2013-09-13 07:53:00
4:44 AM,66.2,64.4,94,29.61,8.0,Calm,Calm,-,N/A,,Mostly Cloudy,0,2013-09-13 08:44:00
4:53 AM,66.9,64.9,93,29.60,8.0,Calm,Calm,-,N/A,,Mostly Cloudy,0,2013-09-13 08:53:00
5:08 AM,66.2,64.4,94,29.61,7.0,Calm,Calm,-,N/A,,Mostly Cloudy,0,2013-09-13 09:08:00
5:15 AM,66.2,64.4,94,29.61,6.0,Calm,Calm,-,N/A,,Mostly Cloudy,0,2013-09-13 09:15:00
5:53 AM,66.9,64.9,93,29.60,6.0,Calm,Calm,-,0.00,Rain,Light Rain,0,2013-09-13 09:53:00
6:28 AM,66.2,64.4,94,29.62,5.0,NW,3.5,-,0.00,,Overcast,320,2013-09-13 10:28:00
6:36 AM,66.2,64.4,94,29.62,4.0,NW,3.5,-,0.00,,Overcast,320,2013-09-13 10:36:00
6:45 AM,66.2,66.2,100,29.63,5.0,NW,3.5,-,0.00,Rain,Light Rain,320,2013-09-13 10:45:00
6:50 AM,66.2,66.2,100,29.63,1.5,NNW,4.6,-,0.01,Rain,Light Rain,330,2013-09-13 10:50:00
6:53 AM,66.9,66.0,97,29.61,1.5,NNW,3.5,-,0.01,Rain,Light Rain,330,2013-09-13 10:53:00
7:53 AM,68.0,66.0,93,29.61,3.0,Calm,Calm,-,0.02,Rain,Light Rain,0,2013-09-13 11:53:00
8:53 AM,68.0,66.0,93,29.61,9.0,Calm,Calm,-,0.05,Rain,Light Rain,0,2013-09-13 12:53:00
9:24 AM,69.8,66.2,88,29.63,10.0,Calm,Calm,-,0.00,,Overcast,0,2013-09-13 13:24:00
9:53 AM,69.1,66.0,90,29.61,10.0,Calm,Calm,-,0.00,,Overcast,0,2013-09-13 13:53:00
10:02 AM,69.8,66.2,88,29.62,9.0,Calm,Calm,-,N/A,,Overcast,0,2013-09-13 14:02:00
10:53 AM,72.0,66.0,81,29.60,10.0,Calm,Calm,-,N/A,,Overcast,0,2013-09-13 14:53:00
11:53 AM,73.0,66.0,79,29.59,10.0,Calm,Calm,-,N/A,,Mostly Cloudy,0,2013-09-13 15:53:00
12:20 PM,73.4,64.4,73,29.59,10.0,Calm,Calm,-,N/A,,Overcast,0,2013-09-13 16:20:00
12:44 PM,73.4,64.4,73,29.59,10.0,Calm,Calm,-,0.01,,Mostly Cloudy,0,2013-09-13 16:44:00
12:53 PM,75.0,64.9,71,29.57,10.0,Variable,3.5,-,0.01,,Scattered Clouds,0,2013-09-13 16:53:00
1:53 PM,75.0,66.0,73,29.56,10.0,SE,8.1,-,N/A,,Mostly Cloudy,130,2013-09-13 17:53:00
2:53 PM,73.9,64.9,73,29.56,10.0,SE,5.8,-,N/A,,Mostly Cloudy,130,2013-09-13 18:53:00
3:04 PM,69.8,64.4,83,29.60,1.5,NNW,11.5,19.6,0.13,Rain,Heavy Rain,340,2013-09-13 19:04:00
3:08 PM,66.2,64.4,94,29.60,0.8,North,9.2,19.6,0.21,Rain,Heavy Rain,360,2013-09-13 19:08:00
3:13 PM,66.2,64.4,94,29.60,1.0,North,6.9,-,0.27,Rain,Heavy Rain,10,2013-09-13 19:13:00
3:34 PM,66.2,64.4,94,29.59,3.0,NE,6.9,-,0.43,Rain,Light Rain,40,2013-09-13 19:34:00
3:53 PM,68.0,64.9,90,29.58,10.0,ESE,3.5,-,0.43,,Mostly Cloudy,120,2013-09-13 19:53:00
4:53 PM,70.0,66.0,87,29.59,10.0,NW,5.8,-,N/A,,Mostly Cloudy,320,2013-09-13 20:53:00
5:53 PM,70.0,64.0,81,29.61,10.0,NW,10.4,16.1,N/A,,Mostly Cloudy,310,2013-09-13 21:53:00
6:53 PM,64.9,61.0,87,29.64,10.0,NW,6.9,-,N/A,,Mostly Cloudy,310,2013-09-13 22:53:00
7:53 PM,63.0,59.0,87,29.68,10.0,NW,6.9,-,N/A,,Partly Cloudy,320,2013-09-13 23:53:00
8:53 PM,61.0,57.9,90,29.70,10.0,NW,5.8,-,N/A,,Clear,310,2013-09-14 00:53:00
9:53 PM,61.0,55.9,83,29.71,10.0,NW,9.2,-,N/A,,Clear,310,2013-09-14 01:53:00
10:53 PM,59.0,55.0,87,29.73,10.0,NW,9.2,-,N/A,,Clear,320,2013-09-14 02:53:00
11:53 PM,59.0,54.0,83,29.73,10.0,NW,8.1,-,N/A,,Mostly Cloudy,310,2013-09-14 03:53:00